Stations météo

Publicité
Alanya, Turquie (17310): Température de l'air & dewpoint: 18.01.2021 08:00:00 - 24.01.2021 08:00:00 (EET)Alanya, Turquie (17310): Vitesse du vent: 18.01.2021 08:00:00 - 24.01.2021 08:00:00 (EET)Alanya, Turquie (17310): Direction du vent: 18.01.2021 08:00:00 - 24.01.2021 08:00:00 (EET)Alanya, Turquie (17310): reduced air pressure: 18.01.2021 08:00:00 - 24.01.2021 08:00:00 (EET)Alanya, Turquie (17310): visibility: 18.01.2021 08:00:00 - 24.01.2021 08:00:00 (EET)
Date & Time tt [°C] td [°C] ff [km/h] ff [knt] dd ppp [hPa] vv [km]
24.01.2021 08:00:00 11,7 4,2 4 2 NE 1019,7 20
24.01.2021 07:00:00 - - - - - - -
24.01.2021 06:00:00 - - - - - - -
24.01.2021 05:00:00 11,9 3,6 0 0 N 1019,6 20
24.01.2021 04:00:00 - - - - - - -
24.01.2021 03:00:00 - - - - - - -
24.01.2021 02:00:00 12,1 5,5 2 1 NNE 1019,9 20
24.01.2021 01:00:00 - - - - - - -
24.01.2021 00:00:00 - - - - - - -
23.01.2021 23:00:00 12,8 5,5 4 2 NNE 1021,5 20
23.01.2021 22:00:00 - - - - - - -
23.01.2021 21:00:00 - - - - - - -
23.01.2021 20:00:00 14,1 6,0 0 0 N 1021,3 20
23.01.2021 19:00:00 13,9 5,8 0 0 N 1021,2 20
23.01.2021 18:00:00 14,1 5,7 0 0 N 1020,7 20
23.01.2021 17:00:00 15,4 5,3 0 0 N 1021,3 20
23.01.2021 16:00:00 16,0 5,2 5 3 S 1020,6 20
23.01.2021 15:00:00 17,2 5,7 2 1 S 1020,5 20
23.01.2021 14:00:00 17,4 6,2 8 4 S 1021,3 20
23.01.2021 13:00:00 17,0 6,8 4 2 SSW 1022,0 20
23.01.2021 12:00:00 16,5 6,9 4 2 S 1022,9 20
23.01.2021 11:00:00 16,0 7,0 5 3 SSE 1022,9 20
23.01.2021 10:00:00 15,9 6,9 4 2 ENE 1023,6 20
23.01.2021 09:00:00 13,1 4,5 2 1 NE 1023,7 20
23.01.2021 08:00:00 10,8 3,3 4 2 NNE 1023,8 20
23.01.2021 07:00:00 - - - - - - -
23.01.2021 06:00:00 - - - - - - -
23.01.2021 05:00:00 10,7 4,0 4 2 NE 1023,2 20
23.01.2021 04:00:00 - - - - - - -
23.01.2021 03:00:00 - - - - - - -
23.01.2021 02:00:00 11,3 2,8 2 1 NNE 1024,4 20
23.01.2021 01:00:00 - - - - - - -
23.01.2021 00:00:00 - - - - - - -
22.01.2021 23:00:00 12,0 5,4 2 1 NNE 1025,5 20
22.01.2021 22:00:00 - - - - - - -
22.01.2021 21:00:00 - - - - - - -
22.01.2021 20:00:00 13,2 5,6 0 0 N 1026,1 20
22.01.2021 19:00:00 13,4 5,6 2 1 NE 1026,5 20
22.01.2021 18:00:00 14,0 5,6 2 1 WNW 1025,9 20
22.01.2021 17:00:00 15,1 6,4 0 0 N 1025,3 20
22.01.2021 16:00:00 15,8 6,5 0 0 N 1025,8 20
22.01.2021 15:00:00 16,2 5,4 2 1 SSW 1026,2 20
22.01.2021 14:00:00 16,4 5,9 2 1 S 1026,3 20
22.01.2021 13:00:00 16,1 6,5 4 2 S 1027,2 20
22.01.2021 12:00:00 15,8 6,5 8 4 S 1027,5 20
22.01.2021 11:00:00 15,0 5,7 2 1 S 1028,9 20
22.01.2021 10:00:00 15,6 3,3 0 0 N 1029,2 20
22.01.2021 09:00:00 13,5 4,9 0 0 N 1028,6 20
22.01.2021 08:00:00 11,4 5,1 2 1 ENE 1028,5 20
22.01.2021 07:00:00 - - - - - - -
22.01.2021 06:00:00 - - - - - - -
22.01.2021 05:00:00 11,4 4,6 2 1 NE 1028,3 20
22.01.2021 04:00:00 - - - - - - -
22.01.2021 03:00:00 - - - - - - -
22.01.2021 02:00:00 11,2 4,7 4 2 NE 1029,4 20
22.01.2021 01:00:00 - - - - - - -
22.01.2021 00:00:00 - - - - - - -
21.01.2021 23:00:00 12,0 4,0 2 1 NE 1029,9 20
21.01.2021 22:00:00 - - - - - - -
21.01.2021 21:00:00 - - - - - - -
21.01.2021 20:00:00 13,7 4,0 0 0 N 1029,7 20
21.01.2021 19:00:00 14,1 4,1 2 1 NNE 1029,6 20
21.01.2021 18:00:00 14,5 3,5 2 1 ENE 1029,3 20
21.01.2021 17:00:00 15,0 3,4 4 2 SE 1029,0 20
21.01.2021 16:00:00 15,7 3,7 8 4 SE 1029,2 20
21.01.2021 15:00:00 16,4 2,6 5 3 SE 1029,0 20
21.01.2021 14:00:00 16,3 3,6 8 4 SSE 1028,9 20
21.01.2021 13:00:00 16,1 3,7 4 2 ESE 1029,4 20
21.01.2021 12:00:00 16,4 3,0 5 3 ENE 1029,9 20
21.01.2021 11:00:00 15,8 1,7 5 3 ENE 1029,9 20
21.01.2021 10:00:00 15,4 -2,2 2 1 E 1030,1 20
21.01.2021 09:00:00 11,4 -4,4 2 1 ENE 1029,0 20
21.01.2021 08:00:00 8,8 -5,2 4 2 ENE 1029,3 20
21.01.2021 07:00:00 - - - - - - -
21.01.2021 06:00:00 - - - - - - -
21.01.2021 05:00:00 8,3 -7,5 4 2 NE 1026,8 20
21.01.2021 04:00:00 - - - - - - -
21.01.2021 03:00:00 - - - - - - -
21.01.2021 02:00:00 8,5 -8,6 4 2 NE 1027,0 20
21.01.2021 01:00:00 - - - - - - -
21.01.2021 00:00:00 - - - - - - -
20.01.2021 23:00:00 7,6 -6,6 0 0 N 1026,8 20
20.01.2021 22:00:00 - - - - - - -
20.01.2021 21:00:00 - - - - - - -
20.01.2021 20:00:00 8,9 -5,5 2 1 ENE 1024,6 20
20.01.2021 19:00:00 9,3 -7,9 2 1 NE 1024,3 20
20.01.2021 18:00:00 9,6 -8,6 5 3 NE 1023,8 20
20.01.2021 17:00:00 10,6 -8,7 8 4 NE 1023,4 20
20.01.2021 16:00:00 12,0 -9,7 8 4 NE 1022,0 20
20.01.2021 15:00:00 13,0 -7,7 4 2 E 1021,3 20
20.01.2021 14:00:00 12,9 -10,2 5 3 ESE 1020,5 20
20.01.2021 13:00:00 12,6 -9,8 5 3 ENE 1020,4 20
20.01.2021 12:00:00 11,5 -11,3 5 3 ENE 1019,9 20
20.01.2021 11:00:00 11,4 -9,6 5 3 ENE 1020,0 20
20.01.2021 10:00:00 9,9 -10,9 5 3 NE 1019,5 20
20.01.2021 09:00:00 8,3 -11,7 8 4 NNE 1018,5 20
20.01.2021 08:00:00 6,6 -12,1 8 4 NNE 1017,4 20
20.01.2021 07:00:00 - - - - - - -
20.01.2021 06:00:00 - - - - - - -
20.01.2021 05:00:00 6,7 -8,9 11 6 NE 1014,2 20
20.01.2021 04:00:00 - - - - - - -
20.01.2021 03:00:00 - - - - - - -
20.01.2021 02:00:00 7,2 -5,9 9 5 NE 1014,4 20
20.01.2021 01:00:00 - - - - - - -
20.01.2021 00:00:00 - - - - - - -
19.01.2021 23:00:00 8,6 -4,3 8 4 NE 1013,7 20
19.01.2021 22:00:00 - - - - - - -
19.01.2021 21:00:00 - - - - - - -
19.01.2021 20:00:00 10,3 -0,5 4 2 NE 1013,2 20
19.01.2021 19:00:00 11,0 -1,5 2 1 NNW 1013,4 20
19.01.2021 18:00:00 11,7 -0,8 2 1 WNW 1013,1 20
19.01.2021 17:00:00 13,0 -1,1 4 2 S 1012,9 20
19.01.2021 16:00:00 13,8 0,0 5 3 S 1012,8 20
19.01.2021 15:00:00 14,5 -3,4 4 2 S 1012,4 20
19.01.2021 14:00:00 14,5 -1,7 4 2 S 1012,6 20
19.01.2021 13:00:00 14,6 -4,3 4 2 E 1013,4 20
19.01.2021 12:00:00 13,8 -3,6 5 3 ENE 1014,0 20
19.01.2021 11:00:00 12,9 -3,9 8 4 ENE 1013,9 20
19.01.2021 10:00:00 11,6 -2,7 2 1 NE 1014,4 20
19.01.2021 09:00:00 9,6 -1,2 5 3 NE 1013,5 20
19.01.2021 08:00:00 7,7 1,1 2 1 NNE 1014,0 20
19.01.2021 07:00:00 - - - - - - -
19.01.2021 06:00:00 - - - - - - -
19.01.2021 05:00:00 7,8 2,5 0 0 N 1012,8 20
19.01.2021 04:00:00 - - - - - - -
19.01.2021 03:00:00 - - - - - - -
19.01.2021 02:00:00 9,3 3,5 0 0 N 1013,0 20
19.01.2021 01:00:00 - - - - - - -
19.01.2021 00:00:00 - - - - - - -
18.01.2021 23:00:00 9,8 2,2 0 0 N 1012,5 15
18.01.2021 22:00:00 - - - - - - -
18.01.2021 21:00:00 - - - - - - -
18.01.2021 20:00:00 9,2 2,7 5 3 N 1014,5 15
18.01.2021 19:00:00 10,5 2,1 2 1 NE 1014,5 15
18.01.2021 18:00:00 11,4 1,6 2 1 ENE 1013,9 20
18.01.2021 17:00:00 11,4 -0,8 5 3 NNW 1013,7 20
18.01.2021 16:00:00 11,6 -0,9 4 2 NNW 1014,1 20
18.01.2021 15:00:00 11,5 0,0 5 3 NE 1014,2 20
18.01.2021 14:00:00 11,2 -0,3 5 3 N 1014,2 20
18.01.2021 13:00:00 12,1 -1,9 0 0 N 1014,8 20
18.01.2021 12:00:00 12,3 -2,1 4 2 W 1014,2 20
18.01.2021 11:00:00 13,0 -2,2 5 3 S 1014,3 20
18.01.2021 10:00:00 12,7 -4,5 0 0 N 1013,9 20
18.01.2021 09:00:00 11,2 -3,8 2 1 NNE 1013,9 20
18.01.2021 08:00:00 8,7 -5,6 2 1 NE 1013,3 20

tt = Température de l'air
td = dewpoint
ff = Vitesse du vent
dd = Direction du vent
ppp = reduced air pressure
vv = visibility

stations d'obs. à proximité